contact:dominique.lefevre@mio.osupytheas.fr, maurice.libes@osupytheas.fr, didier.mallarino@osupytheas.fr
Project:EMSO http://www.emso-fr.org/EMSO-France
Depth: 2436.0 m
Title:EMSO Ligure Ouest : Data MII capteur MICROCAT
DateTime_Computer,Latitude,Longitude,Temperature,Conductivity,Pressure,DateTime_Instrument
DateTime_Computer,Latitude,Longitude,degC,S m-1,dbar,DateTime_Instrument
2020-10-26T00:01:43Z,42.805,6.029,13.3004,4.60051,2470.156,2020-10-26T02:02:38Z
2020-10-26T00:04:46Z,42.805,6.029,13.3015,4.60050,2470.11,2020-10-26T02:05:41Z
2020-10-26T00:07:49Z,42.805,6.029,13.3017,4.60014,2470.124,2020-10-26T02:08:44Z
2020-10-26T00:10:52Z,42.805,6.029,13.3010,4.60046,2470.156,2020-10-26T02:11:47Z
2020-10-26T00:13:55Z,42.805,6.029,13.3015,4.60045,2470.133,2020-10-26T02:14:50Z
2020-10-26T00:16:58Z,42.805,6.029,13.2995,4.60057,2470.133,2020-10-26T02:17:53Z
2020-10-26T00:20:01Z,42.805,6.029,13.3018,4.60026,2470.133,2020-10-26T02:20:56Z
2020-10-26T00:23:05Z,42.805,6.029,13.3011,4.60035,2470.147,2020-10-26T02:23:59Z
2020-10-26T00:26:08Z,42.805,6.029,13.2998,4.60045,2470.156,2020-10-26T02:27:03Z
2020-10-26T00:29:11Z,42.805,6.029,13.3006,4.60039,2470.133,2020-10-26T02:30:06Z
2020-10-26T00:32:14Z,42.805,6.029,13.3014,4.60049,2470.171,2020-10-26T02:33:09Z
2020-10-26T00:35:17Z,42.805,6.029,13.2998,4.60049,2470.171,2020-10-26T02:36:12Z
2020-10-26T00:38:20Z,42.805,6.029,13.2996,4.59997,2470.171,2020-10-26T02:39:15Z
2020-10-26T00:41:23Z,42.805,6.029,13.2991,4.60031,2470.156,2020-10-26T02:42:18Z
2020-10-26T00:44:26Z,42.805,6.029,13.3004,4.60039,2470.171,2020-10-26T02:45:21Z
2020-10-26T00:47:29Z,42.805,6.029,13.3016,4.60036,2470.133,2020-10-26T02:48:24Z
2020-10-26T00:50:33Z,42.805,6.029,13.3031,4.60051,2470.147,2020-10-26T02:51:28Z
2020-10-26T00:53:36Z,42.805,6.029,13.3031,4.60037,2470.133,2020-10-26T02:54:31Z
2020-10-26T00:56:39Z,42.805,6.029,13.3007,4.60026,2470.11,2020-10-26T02:57:34Z
2020-10-26T00:59:42Z,42.805,6.029,13.2986,4.60031,2470.147,2020-10-26T03:00:37Z
2020-10-26T01:02:45Z,42.805,6.029,13.3005,4.60051,2470.171,2020-10-26T03:03:40Z
2020-10-26T01:05:48Z,42.805,6.029,13.3026,4.60024,2470.147,2020-10-26T03:06:43Z
2020-10-26T01:08:51Z,42.805,6.029,13.3009,4.60049,2470.147,2020-10-26T03:09:46Z
2020-10-26T01:11:54Z,42.805,6.029,13.3004,4.60054,2470.124,2020-10-26T03:12:49Z
2020-10-26T01:14:58Z,42.805,6.029,13.2998,4.60052,2470.171,2020-10-26T03:15:52Z
2020-10-26T01:18:01Z,42.805,6.029,13.3010,4.60033,2470.18,2020-10-26T03:18:56Z
2020-10-26T01:21:04Z,42.805,6.029,13.3009,4.60043,2470.156,2020-10-26T03:21:59Z
2020-10-26T01:24:07Z,42.805,6.029,13.3023,4.60035,2470.171,2020-10-26T03:25:02Z
2020-10-26T01:27:10Z,42.805,6.029,13.3012,4.60035,2470.147,2020-10-26T03:28:05Z
2020-10-26T01:30:13Z,42.805,6.029,13.3033,4.60047,2470.171,2020-10-26T03:31:08Z
2020-10-26T01:33:16Z,42.805,6.029,13.3026,4.60046,2470.171,2020-10-26T03:34:11Z
2020-10-26T01:36:19Z,42.805,6.029,13.3018,4.60067,2470.133,2020-10-26T03:37:14Z
2020-10-26T01:39:23Z,42.805,6.029,13.3020,4.60057,2470.133,2020-10-26T03:40:17Z
2020-10-26T01:42:26Z,42.805,6.029,13.2988,4.60053,2470.171,2020-10-26T03:43:21Z
2020-10-26T01:45:29Z,42.805,6.029,13.3010,4.60035,2470.147,2020-10-26T03:46:24Z
2020-10-26T01:48:32Z,42.805,6.029,13.3021,4.60027,2470.147,2020-10-26T03:49:27Z
2020-10-26T01:51:35Z,42.805,6.029,13.3029,4.60029,2470.194,2020-10-26T03:52:30Z
2020-10-26T01:54:38Z,42.805,6.029,13.3022,4.60038,2470.156,2020-10-26T03:55:33Z
2020-10-26T01:57:41Z,42.805,6.029,13.3004,4.60065,2470.147,2020-10-26T03:58:36Z
2020-10-26T02:00:44Z,42.805,6.029,13.3018,4.60051,2470.194,2020-10-26T04:01:39Z
2020-10-26T02:03:48Z,42.805,6.029,13.3007,4.60024,2470.156,2020-10-26T04:04:42Z
2020-10-26T02:06:51Z,42.805,6.029,13.3004,4.60052,2470.171,2020-10-26T04:07:46Z
2020-10-26T02:09:54Z,42.805,6.029,13.3011,4.60049,2470.156,2020-10-26T04:10:49Z
2020-10-26T02:12:57Z,42.805,6.029,13.2995,4.60036,2470.18,2020-10-26T04:13:52Z
2020-10-26T02:16:00Z,42.805,6.029,13.3006,4.60026,2470.18,2020-10-26T04:16:55Z
2020-10-26T02:19:03Z,42.805,6.029,13.3004,4.60046,2470.217,2020-10-26T04:19:58Z
2020-10-26T02:22:06Z,42.805,6.029,13.3014,4.60007,2470.156,2020-10-26T04:23:01Z
2020-10-26T02:25:09Z,42.805,6.029,13.3010,4.60011,2470.133,2020-10-26T04:26:04Z
2020-10-26T02:28:13Z,42.805,6.029,13.2994,4.60042,2470.171,2020-10-26T04:29:07Z
2020-10-26T02:31:16Z,42.805,6.029,13.2997,4.60049,2470.156,2020-10-26T04:32:11Z
2020-10-26T02:34:19Z,42.805,6.029,13.3002,4.60054,2470.156,2020-10-26T04:35:14Z
2020-10-26T02:37:22Z,42.805,6.029,13.3006,4.60056,2470.156,2020-10-26T04:38:17Z
2020-10-26T02:40:25Z,42.805,6.029,13.3000,4.60040,2470.18,2020-10-26T04:41:20Z
2020-10-26T02:43:28Z,42.805,6.029,13.2998,4.60035,2470.171,2020-10-26T04:44:23Z
2020-10-26T02:46:31Z,42.805,6.029,13.3006,4.60080,2470.18,2020-10-26T04:47:26Z
2020-10-26T02:49:34Z,42.805,6.029,13.2991,4.60043,2470.18,2020-10-26T04:50:29Z
2020-10-26T02:52:38Z,42.805,6.029,13.2993,4.60043,2470.194,2020-10-26T04:53:32Z
2020-10-26T02:55:41Z,42.805,6.029,13.2993,4.60066,2470.18,2020-10-26T04:56:36Z
2020-10-26T02:58:44Z,42.805,6.029,13.3000,4.60045,2470.18,2020-10-26T04:59:39Z
2020-10-26T03:01:47Z,42.805,6.029,13.3004,4.60099,2470.203,2020-10-26T05:02:42Z
2020-10-26T03:04:50Z,42.805,6.029,13.3016,4.60035,2470.156,2020-10-26T05:05:45Z
2020-10-26T03:07:53Z,42.805,6.029,13.2996,4.60057,2470.18,2020-10-26T05:08:48Z
2020-10-26T03:10:56Z,42.805,6.029,13.3001,4.60049,2470.18,2020-10-26T05:11:51Z
2020-10-26T03:13:59Z,42.805,6.029,13.2990,4.60046,2470.156,2020-10-26T05:14:54Z
2020-10-26T03:17:02Z,42.805,6.029,13.3009,4.60042,2470.156,2020-10-26T05:17:57Z
2020-10-26T03:20:06Z,42.805,6.029,13.2991,4.60044,2470.194,2020-10-26T05:21:01Z
2020-10-26T03:23:09Z,42.805,6.029,13.3008,4.60042,2470.18,2020-10-26T05:24:04Z
2020-10-26T03:26:12Z,42.805,6.029,13.3005,4.60031,2470.194,2020-10-26T05:27:07Z
2020-10-26T03:29:15Z,42.805,6.029,13.3006,4.60057,2470.203,2020-10-26T05:30:10Z
2020-10-26T03:32:18Z,42.805,6.029,13.2993,4.60045,2470.203,2020-10-26T05:33:13Z
2020-10-26T03:35:21Z,42.805,6.029,13.2990,4.60059,2470.217,2020-10-26T05:36:16Z
2020-10-26T03:38:24Z,42.805,6.029,13.2996,4.60058,2470.18,2020-10-26T05:39:19Z
2020-10-26T03:41:27Z,42.805,6.029,13.2998,4.60044,2470.18,2020-10-26T05:42:22Z
2020-10-26T03:44:31Z,42.805,6.029,13.3015,4.60044,2470.18,2020-10-26T05:45:25Z
2020-10-26T03:47:34Z,42.805,6.029,13.3011,4.60064,2470.25,2020-10-26T05:48:29Z
2020-10-26T03:50:37Z,42.805,6.029,13.2991,4.60052,2470.18,2020-10-26T05:51:32Z
2020-10-26T03:53:40Z,42.805,6.029,13.2991,4.60067,2470.18,2020-10-26T05:54:35Z
2020-10-26T03:56:43Z,42.805,6.029,13.3000,4.60072,2470.217,2020-10-26T05:57:38Z
2020-10-26T03:59:46Z,42.805,6.029,13.2995,4.60047,2470.203,2020-10-26T06:00:41Z
2020-10-26T04:02:49Z,42.805,6.029,13.2990,4.60020,2470.203,2020-10-26T06:03:44Z
2020-10-26T04:05:52Z,42.805,6.029,13.2993,4.60025,2470.156,2020-10-26T06:06:47Z
2020-10-26T04:08:56Z,42.805,6.029,13.2994,4.60025,2470.194,2020-10-26T06:09:50Z
2020-10-26T04:11:59Z,42.805,6.029,13.2990,4.60009,2470.194,2020-10-26T06:12:54Z
2020-10-26T04:15:02Z,42.805,6.029,13.2991,4.60035,2470.18,2020-10-26T06:15:57Z
2020-10-26T04:18:05Z,42.805,6.029,13.2991,4.60052,2470.217,2020-10-26T06:19:00Z
2020-10-26T04:21:08Z,42.805,6.029,13.2996,4.60046,2470.217,2020-10-26T06:22:03Z
2020-10-26T04:24:11Z,42.805,6.029,13.2999,4.60032,2470.217,2020-10-26T06:25:06Z
2020-10-26T04:27:14Z,42.805,6.029,13.2996,4.60038,2470.203,2020-10-26T06:28:09Z
2020-10-26T04:30:17Z,42.805,6.029,13.3006,4.60057,2470.203,2020-10-26T06:31:12Z
2020-10-26T04:33:21Z,42.805,6.029,13.3011,4.60069,2470.194,2020-10-26T06:34:15Z
2020-10-26T04:36:24Z,42.805,6.029,13.2990,4.60035,2470.25,2020-10-26T06:37:19Z
2020-10-26T04:39:27Z,42.805,6.029,13.2990,4.60019,2470.203,2020-10-26T06:40:22Z
2020-10-26T04:42:30Z,42.805,6.029,13.3003,4.60028,2470.24,2020-10-26T06:43:25Z
2020-10-26T04:45:33Z,42.805,6.029,13.2993,4.60019,2470.194,2020-10-26T06:46:28Z
2020-10-26T04:48:36Z,42.805,6.029,13.3000,4.60021,2470.217,2020-10-26T06:49:31Z
2020-10-26T04:51:39Z,42.805,6.029,13.2998,4.60019,2470.217,2020-10-26T06:52:34Z
2020-10-26T04:54:42Z,42.805,6.029,13.2995,4.60021,2470.203,2020-10-26T06:55:37Z
2020-10-26T04:57:46Z,42.805,6.029,13.2997,4.60022,2470.217,2020-10-26T06:58:40Z
2020-10-26T05:00:49Z,42.805,6.029,13.3000,4.60019,2470.203,2020-10-26T07:01:44Z
2020-10-26T05:03:52Z,42.805,6.029,13.2988,4.60033,2470.194,2020-10-26T07:04:47Z
2020-10-26T05:06:55Z,42.805,6.029,13.2995,4.60020,2470.18,2020-10-26T07:07:50Z
2020-10-26T05:09:58Z,42.805,6.029,13.2991,4.60029,2470.18,2020-10-26T07:10:53Z
2020-10-26T05:13:01Z,42.805,6.029,13.3000,4.60033,2470.217,2020-10-26T07:13:56Z
2020-10-26T05:16:04Z,42.805,6.029,13.3003,4.60028,2470.203,2020-10-26T07:16:59Z
2020-10-26T05:19:07Z,42.805,6.029,13.2995,4.60026,2470.203,2020-10-26T07:20:02Z
2020-10-26T05:22:11Z,42.805,6.029,13.2993,4.60018,2470.217,2020-10-26T07:23:05Z
2020-10-26T05:25:14Z,42.805,6.029,13.3006,4.60025,2470.203,2020-10-26T07:26:09Z
2020-10-26T05:28:17Z,42.805,6.029,13.2999,4.60051,2470.18,2020-10-26T07:29:12Z
2020-10-26T05:31:20Z,42.805,6.029,13.3008,4.60029,2470.18,2020-10-26T07:32:15Z
2020-10-26T05:34:23Z,42.805,6.029,13.2991,4.60021,2470.18,2020-10-26T07:35:18Z
2020-10-26T05:37:26Z,42.805,6.029,13.2995,4.60034,2470.194,2020-10-26T07:38:21Z
2020-10-26T05:40:29Z,42.805,6.029,13.2996,4.60042,2470.18,2020-10-26T07:41:24Z
2020-10-26T05:43:32Z,42.805,6.029,13.2987,4.60031,2470.203,2020-10-26T07:44:27Z
2020-10-26T05:46:36Z,42.805,6.029,13.3002,4.60040,2470.194,2020-10-26T07:47:30Z
2020-10-26T05:49:39Z,42.805,6.029,13.3004,4.60039,2470.194,2020-10-26T07:50:34Z
2020-10-26T05:52:42Z,42.805,6.029,13.2992,4.60023,2470.18,2020-10-26T07:53:37Z
2020-10-26T05:55:45Z,42.805,6.029,13.2996,4.60039,2470.119,2020-10-26T07:56:40Z
2020-10-26T05:58:48Z,42.805,6.029,13.2996,4.60041,2470.203,2020-10-26T07:59:43Z
2020-10-26T06:01:51Z,42.805,6.029,13.2991,4.60035,2470.203,2020-10-26T08:02:46Z
2020-10-26T06:04:54Z,42.805,6.029,13.2997,4.60026,2470.18,2020-10-26T08:05:49Z
2020-10-26T06:07:57Z,42.805,6.029,13.2991,4.60033,2470.156,2020-10-26T08:08:52Z
2020-10-26T06:11:00Z,42.805,6.029,13.2998,4.60049,2470.18,2020-10-26T08:11:55Z
2020-10-26T06:14:04Z,42.805,6.029,13.2995,4.60039,2470.171,2020-10-26T08:14:58Z
2020-10-26T06:17:07Z,42.805,6.029,13.3002,4.60049,2470.18,2020-10-26T08:18:02Z
2020-10-26T06:20:10Z,42.805,6.029,13.2995,4.60027,2470.18,2020-10-26T08:21:05Z
2020-10-26T06:23:13Z,42.805,6.029,13.2993,4.60014,2470.18,2020-10-26T08:24:08Z
2020-10-26T06:26:16Z,42.805,6.029,13.3010,4.60026,2470.194,2020-10-26T08:27:11Z
2020-10-26T06:29:19Z,42.805,6.029,13.2993,4.60029,2470.156,2020-10-26T08:30:14Z
2020-10-26T06:32:22Z,42.805,6.029,13.2993,4.60015,2470.156,2020-10-26T08:33:17Z
2020-10-26T06:35:25Z,42.805,6.029,13.2996,4.60016,2470.194,2020-10-26T08:36:20Z
2020-10-26T06:38:29Z,42.805,6.029,13.2995,4.60022,2470.194,2020-10-26T08:39:23Z
2020-10-26T06:41:32Z,42.805,6.029,13.2991,4.60047,2470.18,2020-10-26T08:42:27Z
2020-10-26T06:44:35Z,42.805,6.029,13.3001,4.60021,2470.18,2020-10-26T08:45:30Z
2020-10-26T06:47:38Z,42.805,6.029,13.2998,4.60029,2470.18,2020-10-26T08:48:33Z
2020-10-26T06:50:41Z,42.805,6.029,13.3000,4.60028,2470.156,2020-10-26T08:51:36Z
2020-10-26T06:53:44Z,42.805,6.029,13.3006,4.60049,2470.18,2020-10-26T08:54:39Z
2020-10-26T06:56:47Z,42.805,6.029,13.2993,4.60036,2470.18,2020-10-26T08:57:42Z
2020-10-26T06:59:50Z,42.805,6.029,13.2993,4.60022,2470.171,2020-10-26T09:00:45Z
2020-10-26T07:02:54Z,42.805,6.029,13.2990,4.60031,2470.194,2020-10-26T09:03:48Z
2020-10-26T07:05:57Z,42.805,6.029,13.2998,4.60032,2470.18,2020-10-26T09:06:52Z
2020-10-26T07:09:00Z,42.805,6.029,13.2996,4.60023,2470.156,2020-10-26T09:09:55Z
2020-10-26T07:12:03Z,42.805,6.029,13.3000,4.60025,2470.156,2020-10-26T09:12:58Z
2020-10-26T07:15:06Z,42.805,6.029,13.2995,4.60014,2470.18,2020-10-26T09:16:01Z
2020-10-26T07:18:09Z,42.805,6.029,13.2990,4.60033,2470.18,2020-10-26T09:19:04Z
2020-10-26T07:21:12Z,42.805,6.029,13.2998,4.60047,2470.156,2020-10-26T09:22:07Z
2020-10-26T07:24:15Z,42.805,6.029,13.2999,4.60067,2470.156,2020-10-26T09:25:10Z
2020-10-26T07:27:18Z,42.805,6.029,13.2989,4.60039,2470.194,2020-10-26T09:28:13Z
2020-10-26T07:30:22Z,42.805,6.029,13.3000,4.60041,2470.171,2020-10-26T09:31:17Z
2020-10-26T07:33:25Z,42.805,6.029,13.3000,4.60036,2470.156,2020-10-26T09:34:20Z
2020-10-26T07:36:28Z,42.805,6.029,13.3008,4.60033,2470.171,2020-10-26T09:37:23Z
2020-10-26T07:39:31Z,42.805,6.029,13.3001,4.60022,2470.171,2020-10-26T09:40:26Z
2020-10-26T07:42:34Z,42.805,6.029,13.3004,4.60016,2470.156,2020-10-26T09:43:29Z
2020-10-26T07:45:37Z,42.805,6.029,13.2999,4.60036,2470.156,2020-10-26T09:46:32Z
2020-10-26T07:48:40Z,42.805,6.029,13.3005,4.60046,2470.18,2020-10-26T09:49:35Z
2020-10-26T07:51:43Z,42.805,6.029,13.3015,4.60036,2470.18,2020-10-26T09:52:38Z
2020-10-26T07:54:47Z,42.805,6.029,13.2993,4.60028,2470.171,2020-10-26T09:55:42Z
2020-10-26T07:57:50Z,42.805,6.029,13.3000,4.60025,2470.156,2020-10-26T09:58:45Z
2020-10-26T08:00:53Z,42.805,6.029,13.2992,4.60033,2470.18,2020-10-26T10:01:48Z
2020-10-26T08:03:56Z,42.805,6.029,13.2996,4.60025,2470.143,2020-10-26T10:04:51Z
2020-10-26T08:06:59Z,42.805,6.029,13.3003,4.60019,2470.133,2020-10-26T10:07:54Z
2020-10-26T08:10:02Z,42.805,6.029,13.2992,4.60012,2470.194,2020-10-26T10:10:57Z
2020-10-26T08:13:05Z,42.805,6.029,13.3004,4.60026,2470.171,2020-10-26T10:14:00Z
2020-10-26T08:16:08Z,42.805,6.029,13.3009,4.60031,2470.194,2020-10-26T10:17:03Z
2020-10-26T08:19:12Z,42.805,6.029,13.3001,4.60024,2470.171,2020-10-26T10:20:06Z
2020-10-26T08:22:15Z,42.805,6.029,13.2994,4.60024,2470.171,2020-10-26T10:23:10Z
2020-10-26T08:25:18Z,42.805,6.029,13.2996,4.60024,2470.147,2020-10-26T10:26:13Z
2020-10-26T08:28:21Z,42.805,6.029,13.3002,4.60034,2470.171,2020-10-26T10:29:16Z
2020-10-26T08:31:24Z,42.805,6.029,13.2992,4.60026,2470.171,2020-10-26T10:32:19Z
2020-10-26T08:34:27Z,42.805,6.029,13.2992,4.60026,2470.156,2020-10-26T10:35:22Z
2020-10-26T08:37:30Z,42.805,6.029,13.2997,4.60019,2470.171,2020-10-26T10:38:25Z
2020-10-26T08:40:33Z,42.805,6.029,13.3000,4.60044,2470.133,2020-10-26T10:41:28Z
2020-10-26T08:43:37Z,42.805,6.029,13.3006,4.60039,2470.194,2020-10-26T10:44:32Z
2020-10-26T08:46:40Z,42.805,6.029,13.3006,4.60046,2470.147,2020-10-26T10:47:35Z
2020-10-26T08:49:43Z,42.805,6.029,13.2993,4.60023,2470.147,2020-10-26T10:50:38Z
2020-10-26T08:52:46Z,42.805,6.029,13.3003,4.60037,2470.133,2020-10-26T10:53:41Z
2020-10-26T08:55:49Z,42.805,6.029,13.3011,4.60043,2470.147,2020-10-26T10:56:44Z
2020-10-26T08:58:52Z,42.805,6.029,13.2993,4.60055,2470.156,2020-10-26T10:59:47Z
2020-10-26T09:01:55Z,42.805,6.029,13.3002,4.60043,2470.133,2020-10-26T11:02:50Z
2020-10-26T09:04:58Z,42.805,6.029,13.2992,4.60029,2470.138,2020-10-26T11:05:53Z
2020-10-26T09:08:02Z,42.805,6.029,13.3005,4.60011,2470.11,2020-10-26T11:08:57Z
2020-10-26T09:11:05Z,42.805,6.029,13.3008,4.60044,2470.171,2020-10-26T11:12:00Z
2020-10-26T09:14:08Z,42.805,6.029,13.2999,4.60043,2470.147,2020-10-26T11:15:03Z
2020-10-26T09:17:11Z,42.805,6.029,13.3002,4.60028,2470.133,2020-10-26T11:18:06Z
2020-10-26T09:20:14Z,42.805,6.029,13.2998,4.60017,2470.133,2020-10-26T11:21:09Z
2020-10-26T09:23:17Z,42.805,6.029,13.2996,4.60019,2470.133,2020-10-26T11:24:12Z
2020-10-26T09:26:20Z,42.805,6.029,13.2992,4.60005,2470.156,2020-10-26T11:27:15Z
2020-10-26T09:29:23Z,42.805,6.029,13.2997,4.60017,2470.133,2020-10-26T11:30:18Z
2020-10-26T09:32:27Z,42.805,6.029,13.2991,4.60016,2470.133,2020-10-26T11:33:22Z
2020-10-26T09:35:30Z,42.805,6.029,13.2994,4.60019,2470.156,2020-10-26T11:36:25Z
2020-10-26T09:38:33Z,42.805,6.029,13.3003,4.60016,2470.11,2020-10-26T11:39:28Z
2020-10-26T09:41:36Z,42.805,6.029,13.2998,4.60023,2470.133,2020-10-26T11:42:31Z
2020-10-26T09:44:39Z,42.805,6.029,13.3002,4.60026,2470.171,2020-10-26T11:45:34Z
2020-10-26T09:47:42Z,42.805,6.029,13.2993,4.60013,2470.133,2020-10-26T11:48:37Z
2020-10-26T09:50:45Z,42.805,6.029,13.2996,4.60022,2470.147,2020-10-26T11:51:40Z
2020-10-26T09:53:49Z,42.805,6.029,13.2988,4.60011,2470.18,2020-10-26T11:54:43Z
2020-10-26T09:56:52Z,42.805,6.029,13.2996,4.60023,2470.18,2020-10-26T11:57:47Z
2020-10-26T09:59:55Z,42.805,6.029,13.2997,4.60017,2470.133,2020-10-26T12:00:50Z
2020-10-26T10:02:58Z,42.805,6.029,13.2994,4.60029,2470.147,2020-10-26T12:03:53Z
2020-10-26T10:06:01Z,42.805,6.029,13.2992,4.60024,2470.147,2020-10-26T12:06:56Z
2020-10-26T10:09:04Z,42.805,6.029,13.2997,4.60027,2470.133,2020-10-26T12:09:59Z
2020-10-26T10:12:07Z,42.805,6.029,13.2997,4.60021,2470.133,2020-10-26T12:13:02Z
2020-10-26T10:15:10Z,42.805,6.029,13.2994,4.60021,2470.11,2020-10-26T12:16:05Z
2020-10-26T10:18:14Z,42.805,6.029,13.2993,4.60015,2470.133,2020-10-26T12:19:08Z
2020-10-26T10:21:17Z,42.805,6.029,13.2999,4.60015,2470.171,2020-10-26T12:22:12Z
2020-10-26T10:24:20Z,42.805,6.029,13.2995,4.60026,2470.11,2020-10-26T12:25:15Z
2020-10-26T10:27:23Z,42.805,6.029,13.2993,4.60038,2470.147,2020-10-26T12:28:18Z
2020-10-26T10:30:26Z,42.805,6.029,13.2999,4.60024,2470.147,2020-10-26T12:31:21Z
2020-10-26T10:33:29Z,42.805,6.029,13.2994,4.60024,2470.156,2020-10-26T12:34:24Z
2020-10-26T10:36:32Z,42.805,6.029,13.3000,4.60019,2470.171,2020-10-26T12:37:27Z
2020-10-26T10:39:35Z,42.805,6.029,13.3001,4.60031,2470.171,2020-10-26T12:40:30Z
2020-10-26T10:42:39Z,42.805,6.029,13.3000,4.60009,2470.147,2020-10-26T12:43:33Z
2020-10-26T10:45:42Z,42.805,6.029,13.2996,4.60006,2470.147,2020-10-26T12:46:37Z
2020-10-26T10:48:45Z,42.805,6.029,13.2990,4.60016,2470.171,2020-10-26T12:49:40Z
2020-10-26T10:51:48Z,42.805,6.029,13.2993,4.60005,2470.156,2020-10-26T12:52:43Z
2020-10-26T10:54:51Z,42.805,6.029,13.2995,4.60009,2470.171,2020-10-26T12:55:46Z
2020-10-26T10:57:54Z,42.805,6.029,13.2996,4.60014,2470.171,2020-10-26T12:58:49Z
2020-10-26T11:00:57Z,42.805,6.029,13.2994,4.60017,2470.171,2020-10-26T13:01:52Z
2020-10-26T11:04:00Z,42.805,6.029,13.2991,4.60009,2470.147,2020-10-26T13:04:55Z
2020-10-26T11:07:04Z,42.805,6.029,13.2996,4.60022,2470.133,2020-10-26T13:07:58Z
2020-10-26T11:10:07Z,42.805,6.029,13.3003,4.60029,2470.171,2020-10-26T13:11:02Z
2020-10-26T11:13:10Z,42.805,6.029,13.2995,4.60007,2470.18,2020-10-26T13:14:05Z
2020-10-26T11:16:13Z,42.805,6.029,13.2991,4.60028,2470.194,2020-10-26T13:17:08Z
2020-10-26T11:19:16Z,42.805,6.029,13.2990,4.60031,2470.18,2020-10-26T13:20:11Z
2020-10-26T11:22:19Z,42.805,6.029,13.2995,4.60011,2470.194,2020-10-26T13:23:14Z
2020-10-26T11:25:22Z,42.805,6.029,13.3000,4.60024,2470.133,2020-10-26T13:26:17Z
2020-10-26T11:28:26Z,42.805,6.029,13.2991,4.60014,2470.171,2020-10-26T13:29:20Z
2020-10-26T11:31:29Z,42.805,6.029,13.2991,4.60021,2470.156,2020-10-26T13:32:24Z
2020-10-26T11:34:32Z,42.805,6.029,13.2996,4.60024,2470.133,2020-10-26T13:35:27Z
2020-10-26T11:37:35Z,42.805,6.029,13.3000,4.60021,2470.133,2020-10-26T13:38:30Z
2020-10-26T11:40:38Z,42.805,6.029,13.2999,4.60023,2470.147,2020-10-26T13:41:33Z
2020-10-26T11:43:41Z,42.805,6.029,13.3000,4.60025,2470.156,2020-10-26T13:44:36Z
2020-10-26T11:46:44Z,42.805,6.029,13.2994,4.60013,2470.124,2020-10-26T13:47:39Z
2020-10-26T11:49:47Z,42.805,6.029,13.2993,4.60016,2470.171,2020-10-26T13:50:42Z
2020-10-26T11:52:51Z,42.805,6.029,13.2991,4.60015,2470.171,2020-10-26T13:53:45Z
2020-10-26T11:55:54Z,42.805,6.029,13.2991,4.60004,2470.194,2020-10-26T13:56:49Z
2020-10-26T11:58:57Z,42.805,6.029,13.2996,4.60031,2470.217,2020-10-26T13:59:52Z
2020-10-26T12:02:00Z,42.805,6.029,13.3003,4.60025,2470.156,2020-10-26T14:02:55Z
2020-10-26T12:05:03Z,42.805,6.029,13.2991,4.60019,2470.156,2020-10-26T14:05:58Z
2020-10-26T12:08:06Z,42.805,6.029,13.2993,4.60015,2470.156,2020-10-26T14:09:01Z
2020-10-26T12:11:09Z,42.805,6.029,13.2991,4.60004,2470.133,2020-10-26T14:12:04Z
2020-10-26T12:14:12Z,42.805,6.029,13.2993,4.60008,2470.18,2020-10-26T14:15:07Z
2020-10-26T12:17:16Z,42.805,6.029,13.2987,4.60007,2470.18,2020-10-26T14:18:10Z
2020-10-26T12:20:19Z,42.805,6.029,13.2995,4.59999,2470.147,2020-10-26T14:21:14Z
2020-10-26T12:23:22Z,42.805,6.029,13.2990,4.59998,2470.171,2020-10-26T14:24:17Z
2020-10-26T12:26:25Z,42.805,6.029,13.2991,4.60004,2470.156,2020-10-26T14:27:20Z
2020-10-26T12:29:28Z,42.805,6.029,13.2995,4.60014,2470.156,2020-10-26T14:30:23Z
2020-10-26T12:32:31Z,42.805,6.029,13.2999,4.60008,2470.203,2020-10-26T14:33:26Z
2020-10-26T12:35:34Z,42.805,6.029,13.2987,4.60016,2470.156,2020-10-26T14:36:29Z
2020-10-26T12:38:37Z,42.805,6.029,13.3009,4.60011,2470.203,2020-10-26T14:39:32Z
2020-10-26T12:41:41Z,42.805,6.029,13.2997,4.60021,2470.171,2020-10-26T14:42:35Z
2020-10-26T12:44:44Z,42.805,6.029,13.2986,4.60002,2470.203,2020-10-26T14:45:39Z
2020-10-26T12:47:47Z,42.805,6.029,13.2991,4.60006,2470.203,2020-10-26T14:48:42Z
2020-10-26T12:50:50Z,42.805,6.029,13.2990,4.60002,2470.171,2020-10-26T14:51:45Z
2020-10-26T12:53:53Z,42.805,6.029,13.2992,4.60003,2470.156,2020-10-26T14:54:48Z
2020-10-26T12:56:56Z,42.805,6.029,13.2991,4.60008,2470.203,2020-10-26T14:57:51Z
2020-10-26T12:59:59Z,42.805,6.029,13.2995,4.60009,2470.203,2020-10-26T15:00:54Z
2020-10-26T13:03:02Z,42.805,6.029,13.2997,4.60023,2470.18,2020-10-26T15:03:57Z
2020-10-26T13:06:06Z,42.805,6.029,13.2995,4.60007,2470.18,2020-10-26T15:07:01Z
2020-10-26T13:09:09Z,42.805,6.029,13.2990,4.60005,2470.203,2020-10-26T15:10:04Z
2020-10-26T13:12:12Z,42.805,6.029,13.2990,4.60011,2470.18,2020-10-26T15:13:07Z
2020-10-26T13:15:15Z,42.805,6.029,13.2989,4.60002,2470.203,2020-10-26T15:16:10Z
2020-10-26T13:18:18Z,42.805,6.029,13.2996,4.60004,2470.203,2020-10-26T15:19:13Z
2020-10-26T13:21:21Z,42.805,6.029,13.2992,4.59999,2470.156,2020-10-26T15:22:16Z
2020-10-26T13:24:24Z,42.805,6.029,13.2996,4.60016,2470.194,2020-10-26T15:25:19Z
2020-10-26T13:27:27Z,42.805,6.029,13.2991,4.60001,2470.18,2020-10-26T15:28:22Z
2020-10-26T13:30:31Z,42.805,6.029,13.2991,4.60004,2470.203,2020-10-26T15:31:25Z
2020-10-26T13:33:34Z,42.805,6.029,13.3003,4.60014,2470.227,2020-10-26T15:34:29Z
2020-10-26T13:36:37Z,42.805,6.029,13.2990,4.60010,2470.203,2020-10-26T15:37:32Z
2020-10-26T13:39:40Z,42.805,6.029,13.2993,4.60005,2470.227,2020-10-26T15:40:35Z
2020-10-26T13:42:43Z,42.805,6.029,13.2996,4.60007,2470.203,2020-10-26T15:43:38Z
2020-10-26T13:45:46Z,42.805,6.029,13.2989,4.60008,2470.227,2020-10-26T15:46:41Z
2020-10-26T13:48:49Z,42.805,6.029,13.2989,4.60007,2470.203,2020-10-26T15:49:44Z
2020-10-26T13:51:52Z,42.805,6.029,13.2991,4.60012,2470.264,2020-10-26T15:52:47Z
2020-10-26T13:54:56Z,42.805,6.029,13.2986,4.59996,2470.25,2020-10-26T15:55:51Z
2020-10-26T13:57:59Z,42.805,6.029,13.2993,4.60008,2470.273,2020-10-26T15:58:54Z
2020-10-26T14:01:02Z,42.805,6.029,13.2992,4.60005,2470.217,2020-10-26T16:01:57Z
2020-10-26T14:04:05Z,42.805,6.029,13.2993,4.60015,2470.25,2020-10-26T16:05:00Z
2020-10-26T14:07:08Z,42.805,6.029,13.2995,4.60016,2470.227,2020-10-26T16:08:03Z
2020-10-26T14:10:11Z,42.805,6.029,13.2988,4.60016,2470.227,2020-10-26T16:11:06Z
2020-10-26T14:13:14Z,42.805,6.029,13.2989,4.60006,2470.25,2020-10-26T16:14:09Z
2020-10-26T14:16:17Z,42.805,6.029,13.2986,4.60001,2470.227,2020-10-26T16:17:12Z
2020-10-26T14:19:21Z,42.805,6.029,13.2988,4.60019,2470.25,2020-10-26T16:20:16Z
2020-10-26T14:22:24Z,42.805,6.029,13.2999,4.60009,2470.227,2020-10-26T16:23:19Z
2020-10-26T14:25:27Z,42.805,6.029,13.2997,4.60036,2470.264,2020-10-26T16:26:22Z
2020-10-26T14:28:30Z,42.805,6.029,13.2991,4.60009,2470.227,2020-10-26T16:29:25Z
2020-10-26T14:31:33Z,42.805,6.029,13.2993,4.60009,2470.25,2020-10-26T16:32:28Z
2020-10-26T14:34:36Z,42.805,6.029,13.2986,4.60015,2470.264,2020-10-26T16:35:31Z
2020-10-26T14:37:39Z,42.805,6.029,13.2989,4.60007,2470.227,2020-10-26T16:38:34Z
2020-10-26T14:40:42Z,42.805,6.029,13.2991,4.60021,2470.227,2020-10-26T16:41:37Z
2020-10-26T14:43:46Z,42.805,6.029,13.2996,4.60038,2470.227,2020-10-26T16:44:41Z
2020-10-26T14:46:49Z,42.805,6.029,13.2993,4.60002,2470.264,2020-10-26T16:47:44Z
2020-10-26T14:49:52Z,42.805,6.029,13.2986,4.60005,2470.273,2020-10-26T16:50:47Z
2020-10-26T14:52:55Z,42.805,6.029,13.2995,4.60002,2470.213,2020-10-26T16:53:50Z
2020-10-26T14:55:58Z,42.805,6.029,13.2991,4.60009,2470.264,2020-10-26T16:56:53Z
2020-10-26T14:59:01Z,42.805,6.029,13.2994,4.60002,2470.273,2020-10-26T16:59:56Z
2020-10-26T15:02:04Z,42.805,6.029,13.2986,4.60001,2470.25,2020-10-26T17:02:59Z